User: anonymous   Login
Location: Unspecified
(0.0000°N, 0.0000°E)
Time: 23:36:30
(UTC+01:00)
Language:

Cosmos 1072 Rocket - Orbit

View from above orbital plane
View from above orbital plane
View from above satellite
View from above satellite

Ground track
Ground track

The orbit data is extracted from the following two-line orbital elements,

1 11239U 79003B   15060.21235997  .00000066  00000-0  52108-4 0  9997
2 11239 082.9422 351.2795 0039854 214.9210 310.2106 13.75758018812497
Epoch (UTC): 01 March 2015 05:05:47
Eccentricity: 0.0039854
inclination: 82.9422°
perigee height: 949 km
apogee height: 1008 km
right ascension of ascending node: 351.2795°
argument of perigee: 214.9210°
revolutions per day: 13.75758018
mean anomaly at epoch: 310.2106°
orbit number at epoch: 81249

The dashed part of the orbit path shows where the satellite is in the earth's shadow,  

DLR